{"data":{"norad_id":52550,"epoch":"2026-05-25T00:58:39.948960Z","epoch_age_seconds":71718,"freshness":"FRESH","line1":"1 52550U 22051T   26145.04074015 -.00003170  00000+0 -18121-3 0  9994","line2":"2 52550  53.2127 146.3675 0001240  99.0793 261.0339 15.08836420222978","mean_motion":15.0883642,"eccentricity":0.000124,"inclination_deg":53.2127,"raan_deg":146.3675,"arg_perigee_deg":99.0793,"mean_anomaly_deg":261.0339,"bstar":-0.00018121,"rev_number":22297,"period_min":95.437781121429,"perigee_km":538.89651308842,"apogee_km":540.61215013866,"semimajor_km":6917.8913316135,"source":"CELESTRAK","updated_at":"2026-05-25T13:38:17.164316Z"}}